Cedar Rapids, IA

11:41 PM CST on December 13, 2019 (GMT -0600)
The Eastern Iowa Airport

Weather History for KCID - August, 2019

Change the Weather History Date:

Tuesday, August 13, 2019

  Actual Average Record
Temperature  
Mean Temperature 75 °F 72 °F  
Max Temperature 84 °F 82 °F 100 °F (1918)
Min Temperature 66 °F 61 °F 42 °F (1964)
Degree Days  
Heating Degree Days 0 0  
Month to date heating degree days 0 0  
Since 1 June heating degree days 11 33  
Since 1 July heating degree days 0 4  
Cooling Degree Days 10 7  
Month to date cooling degree days 96 93  
Year to date cooling degree days 598 560  
Since 1 June cooling degree days 570 511  
Growing Degree Days 25 (Base 50)    
Moisture  
Dew Point 69 °F    
Average Humidity 79    
Maximum Humidity 100    
Minimum Humidity 58    
Precipitation  
Precipitation 0.01 in 0.16 in 2.60 in (1943)
Month to date precipitation 1.24 1.85  
Year to date precipitation 23.83 22.67  
Sea Level Pressure  
Sea Level Pressure 29.88 in    
Wind  
Wind Speed 8 mph (NW)    
Max Wind Speed 20 mph    
Max Gust Speed 26 mph    
Visibility 8 miles    
Events Rain    
T = Trace of Precipitation, MM = Missing Value Source: NWS Daily Summary

Daily Weather History Graph

Daily Weather History Graph

Search for Another Location

Airport or City:

Astronomy

Aug. 13, 2019 Rise Set
Actual Time 6:12 AM CDT 8:10 PM CDT
Civil Twilight 5:42 AM CDT 8:40 PM CDT
Nautical Twilight 5:05 AM CDT 9:16 PM CDT
Astronomical Twilight 4:25 AM CDT 9:56 PM CDT
Moon 7:26 PM CDT (8/13) 4:12 AM CDT (8/13)
Length of Visible Light 14h 57m
Length of Day
13h 57m
Waxing Gibbous, 97% of the Moon is Illuminated
Aug 13
Waxing Gibbous
Aug 15
Full
Aug 23
Last Quarter
Aug 30
New
Sep 5
First Quarter

Hourly Weather History & Observations

Time (CDT) Temp. Heat Index Dew Point Humidity Pressure Visibility Wind Dir Wind Speed Gust Speed Precip Events Conditions
12:01 AM 72.0 °F - 72.0 °F 100% 29.82 in 6.0 mi ENE 4.6 mph - N/A   Overcast
12:09 AM 72.0 °F - 72.0 °F 100% 29.82 in 7.0 mi NE 3.5 mph - N/A   Overcast
12:37 AM 72.0 °F - 72.0 °F 100% 29.83 in 8.0 mi NNE 4.6 mph - N/A   Overcast
12:52 AM 72.0 °F - 71.1 °F 97% 29.81 in 6.0 mi North 6.9 mph - 0.00 in Rain Light Rain
1:18 AM 71.1 °F - 70.0 °F 96% 29.83 in 10.0 mi NE 5.8 mph - 0.00 in   Overcast
1:40 AM 71.1 °F - 70.0 °F 96% 29.83 in 10.0 mi NNE 6.9 mph - 0.00 in   Overcast
1:52 AM 71.1 °F - 70.0 °F 96% 29.81 in 10.0 mi NNE 4.6 mph - 0.00 in   Overcast
2:52 AM 71.1 °F - 70.0 °F 96% 29.82 in 9.0 mi NNW 4.6 mph - N/A   Overcast
3:16 AM 70.0 °F - 70.0 °F 100% 29.83 in 9.0 mi NNW 4.6 mph - N/A   Overcast
3:52 AM 70.0 °F - 70.0 °F 100% 29.83 in 6.0 mi NW 5.8 mph - N/A   Overcast
4:13 AM 70.0 °F - 70.0 °F 100% 29.85 in 4.0 mi Calm Calm - 0.01 in   Overcast
4:21 AM 70.0 °F - 70.0 °F 100% 29.86 in 6.0 mi Calm Calm - 0.01 in   Overcast
4:52 AM 70.0 °F - 70.0 °F 100% 29.83 in 3.0 mi NNW 4.6 mph - 0.01 in   Overcast
5:52 AM 68.0 °F - 68.0 °F 100% 29.84 in 3.0 mi NW 5.8 mph - N/A   Overcast
6:19 AM 68.0 °F - 68.0 °F 100% 29.86 in 2.0 mi NNW 4.6 mph - N/A   Overcast
6:52 AM 69.1 °F - 69.1 °F 100% 29.86 in 5.0 mi NW 4.6 mph - N/A   Overcast
7:52 AM 70.0 °F - 70.0 °F 100% 29.88 in 9.0 mi NNW 4.6 mph - N/A   Overcast
8:52 AM 69.1 °F - 68.0 °F 96% 29.90 in 10.0 mi NNW 6.9 mph - N/A   Overcast
8:59 AM 70.0 °F - 68.0 °F 93% 29.91 in 10.0 mi North 8.1 mph - N/A   Overcast
9:49 AM 71.6 °F - 69.8 °F 94% 29.92 in 10.0 mi NW 6.9 mph - N/A   Overcast
9:52 AM 71.1 °F - 69.1 °F 93% 29.91 in 10.0 mi NW 8.1 mph - N/A   Overcast
10:52 AM 73.9 °F - 69.1 °F 85% 29.91 in 10.0 mi NW 8.1 mph - N/A   Overcast
11:12 AM 75.0 °F - 70.0 °F 84% 29.93 in 10.0 mi WNW 5.8 mph - N/A   Overcast
11:21 AM 75.9 °F - 70.0 °F 82% 29.93 in 10.0 mi WNW 9.2 mph - N/A   Mostly Cloudy
11:52 AM 75.0 °F - 69.1 °F 82% 29.92 in 10.0 mi NW 6.9 mph - N/A   Overcast
12:52 PM 79.0 °F - 69.1 °F 72% 29.91 in 10.0 mi NW 12.7 mph - N/A   Overcast
1:52 PM 82.0 °F 85.5 °F 69.1 °F 65% 29.90 in 10.0 mi WNW 15.0 mph 23.0 mph N/A   Scattered Clouds
2:52 PM 82.0 °F 84.9 °F 68.0 °F 62% 29.89 in 10.0 mi NW 13.8 mph - N/A   Partly Cloudy
3:52 PM 82.9 °F 85.8 °F 68.0 °F 60% 29.89 in 10.0 mi WNW 15.0 mph 26.5 mph N/A   Partly Cloudy
4:52 PM 82.9 °F 85.4 °F 66.9 °F 58% 29.88 in 10.0 mi NW 15.0 mph - N/A   Partly Cloudy
5:52 PM 82.0 °F 84.9 °F 68.0 °F 62% 29.89 in 10.0 mi NW 9.2 mph - N/A   Clear
6:52 PM 80.1 °F 82.1 °F 66.0 °F 62% 29.89 in 10.0 mi WNW 10.4 mph - N/A   Clear
7:52 PM 73.9 °F - 66.9 °F 79% 29.90 in 10.0 mi WNW 6.9 mph - N/A   Clear
8:52 PM 73.0 °F - 66.0 °F 79% 29.91 in 10.0 mi West 5.8 mph - N/A   Clear
9:52 PM 68.0 °F - 66.0 °F 93% 29.92 in 10.0 mi SW 3.5 mph - N/A   Clear
10:52 PM 70.0 °F - 64.9 °F 84% 29.94 in 10.0 mi WNW 9.2 mph - N/A   Clear
11:52 PM 69.1 °F - 64.0 °F 84% 29.94 in 10.0 mi NW 9.2 mph - N/A   Clear